Flight Track Log - Related Links

Times and Time Zones

All times are in EST time to prevent confusion due to time zone crossing. See the TAM3442 flight status page for this flight to view local times or setup timezone preferences in your user account.

Time Position Orientation Groundspeed Altitude Reporting Facility
EST Latitude Longitude Course Direction KTS MPH feet Rate Location/Type
08:12PM -23.4430 -46.5130 254° West 171 197 4,100  Level FlightAware
08:13PM -23.4490 -46.5410 257° West 196 226 4,600 1,393 Climbing FlightAware
08:13PM -23.4610 -46.5630 239° Southwest 205 236 5,400 1,714 Climbing FlightAware
08:14PM -23.4760 -46.5680 197° South 220 253 5,800 1,171 Climbing FlightAware
08:14PM -23.4990 -46.5560 154° Southeast 241 277 6,200 840 Climbing FlightAware
08:14PM -23.5100 -46.5250 111° Southeast 272 313 6,500 960 Climbing FlightAware
08:15PM -23.5110 -46.4890 92° East 297 342 7,000 1,393 Climbing FlightAware
08:15PM -23.5050 -46.4420 82° East 295 339 7,800 1,000 Climbing FlightAware
08:16PM -23.4850 -46.4070 58° Northeast 289 333 8,000 621 Climbing FlightAware
08:16PM -23.4640 -46.3700 58° Northeast 290 334 8,400 1,277 Climbing FlightAware
08:17PM -23.4530 -46.3500 59° Northeast 295 339 9,000 1,929 Climbing FlightAware
08:17PM -23.4190 -46.3060 50° Northeast 300 345 10,200 1,385 Climbing FlightAware
08:18PM -23.3650 -46.2840 21° North 336 387 10,800 1,380 Climbing FlightAware
08:19PM -23.2720 -46.2460 21° North 360 414 12,500 1,800 Climbing FlightAware
08:20PM -23.2080 -46.2200 20° North 366 421 13,800 1,895 Climbing FlightAware
08:20PM -23.1190 -46.1830 21° North 374 430 15,500 1,694 Climbing FlightAware
08:21PM -23.0780 -46.1620 25° Northeast 383 441 16,200 1,425 Climbing FlightAware
08:22PM -22.9970 -46.1040 33° Northeast 395 455 17,400 1,680 Climbing FlightAware
08:23PM -22.9200 -46.0520 32° Northeast 391 450 19,000 1,800 Climbing FlightAware
08:23PM -22.8730 -46.0200 32° Northeast 393 452 19,800 1,418 Climbing FlightAware
08:24PM -22.8340 -45.9940 32° Northeast 397 457 20,300 1,543 Climbing FlightAware
08:24PM -22.7650 -45.9470 32° Northeast 393 452 21,600 1,320 Climbing FlightAware
08:25PM -22.6780 -45.8880 32° Northeast 411 473 22,500 1,011 Climbing FlightAware
08:26PM -22.6160 -45.8460 32° Northeast 417 480 23,200 1,200 Climbing FlightAware
08:27PM -22.5310 -45.7880 32° Northeast 421 484 24,300 1,280 Climbing FlightAware
08:27PM -22.4880 -45.7590 32° Northeast 423 487 24,800 1,108 Climbing FlightAware
08:28PM -22.4220 -45.7150 32° Northeast 429 494 25,500 1,000 Climbing FlightAware
08:28PM -22.3930 -45.6950 33° Northeast 427 491 25,900 985 Climbing FlightAware
08:29PM -22.3220 -45.6520 29° Northeast 433 498 26,600 957 Climbing FlightAware
08:29PM -22.2760 -45.6250 29° Northeast 431 496 27,000 885 Climbing FlightAware
08:30PM -22.2240 -45.5950 28° Northeast 435 501 27,500 831 Climbing FlightAware
08:30PM -22.1710 -45.5640 28° Northeast 439 505 27,900 928 Climbing FlightAware
08:32PM -22.0510 -45.4930 29° Northeast 444 511 29,000 1,082 Climbing FlightAware
08:32PM -21.9210 -45.4170 28° Northeast 447 514 30,100 1,009 Climbing FlightAware
08:33PM -21.8280 -45.3620 29° Northeast 452 520 30,800 918 Climbing FlightAware
08:34PM -21.7690 -45.3270 29° Northeast 449 517 31,400 1,200 Climbing FlightAware
08:35PM -21.6780 -45.2730 29° Northeast 439 505 32,500 1,200 Climbing FlightAware
08:35PM -21.6330 -45.2470 28° Northeast 438 504 32,900 400 Climbing FlightAware
08:36PM -21.5410 -45.1940 28° Northeast 442 509 33,000 71 Climbing FlightAware
08:37PM -21.4790 -45.1570 29° Northeast 439 505 33,000  Level FlightAware
08:37PM -21.3890 -45.1040 29° Northeast 439 505 33,000  Level FlightAware
08:38PM -21.3420 -45.0770 28° Northeast 440 506 33,000  Level FlightAware
08:39PM -21.2710 -45.0360 28° Northeast 436 502 33,000 -133 Level FlightAware
08:39PM -21.1860 -44.9860 29° Northeast 442 509 32,800 -474 Descending FlightAware
08:40PM -21.1370 -44.9580 28° Northeast 438 504 32,400 -923 Descending FlightAware
08:40PM -21.0710 -44.9190 29° Northeast 431 496 31,800 -973 Descending FlightAware
08:41PM -21.0040 -44.8800 29° Northeast 427 491 31,200 -1,200 Descending FlightAware
08:41PM -20.9640 -44.8570 28° Northeast 431 496 30,600 -1,800 Descending FlightAware
08:42PM -20.9020 -44.8220 28° Northeast 424 488 29,400 -2,118 Descending FlightAware
08:43PM -20.8150 -44.7710 29° Northeast 413 475 27,600 -2,080 Descending FlightAware
08:43PM -20.7800 -44.7510 28° Northeast 407 468 26,800 -2,031 Descending FlightAware
08:44PM -20.7080 -44.7090 29° Northeast 399 459 25,400 -1,958 Descending FlightAware
08:45PM -20.6190 -44.6580 28° Northeast 391 450 23,700 -1,875 Descending FlightAware
08:45PM -20.5790 -44.6350 28° Northeast 388 447 22,900 -1,875 Descending FlightAware
08:46PM -20.4920 -44.5850 28° Northeast 380 437 21,200 -1,694 Descending FlightAware
08:47PM -20.4450 -44.5650 22° Northeast 375 432 20,500 -1,582 Descending FlightAware
08:48PM -20.3470 -44.5240 21° North 363 418 18,800 -1,647 Descending FlightAware
08:48PM -20.2840 -44.4970 22° Northeast 355 409 17,700 -1,521 Descending FlightAware
08:49PM -20.2400 -44.4780 22° Northeast 351 404 17,000 -1,571 Descending FlightAware
08:50PM -20.1560 -44.4430 21° North 349 402 15,500 -1,615 Descending FlightAware
08:51PM -20.0840 -44.4120 22° Northeast 348 400 14,200 -1,543 Descending FlightAware
08:52PM -19.9990 -44.3760 22° Northeast 343 395 12,800 -1,516 Descending FlightAware
08:52PM -19.9400 -44.3510 22° Northeast 340 391 11,800 -1,522 Descending FlightAware
08:53PM -19.9000 -44.3340 22° Northeast 337 388 11,100 -1,200 Descending FlightAware
08:54PM -19.8110 -44.2970 21° North 316 364 10,000 -1,084 Descending FlightAware
08:54PM -19.7840 -44.2850 23° Northeast 310 357 9,600 -1,418 Descending FlightAware
08:55PM -19.7380 -44.2660 21° North 307 353 8,700 -1,500 Descending FlightAware
08:55PM -19.7050 -44.2520 22° Northeast 301 346 8,100 -1,440 Descending FlightAware
08:55PM -19.6720 -44.2380 22° Northeast 296 341 7,500 -1,377 Descending FlightAware
08:56PM -19.6290 -44.2200 22° Northeast 289 333 6,700 -1,292 Descending FlightAware
08:57PM -19.5930 -44.2040 23° Northeast 283 326 6,100 -814 Descending FlightAware
08:57PM -19.5560 -44.1890 21° North 262 302 5,900 -109 Descending FlightAware
08:57PM -19.5300 -44.1750 27° Northeast 245 282 6,000 -133 Climbing FlightAware
08:58PM -19.5190 -44.1560 58° Northeast 238 274 5,800 -857 Descending FlightAware
08:58PM -19.5050 -44.1170 69° East 234 269 5,200 -873 Descending FlightAware
08:59PM -19.5040 -44.0950 87° East 227 261 5,000 -222 Descending FlightAware
08:59PM -19.5260 -44.0680 131° Southeast 198 228 5,000 -400 Level FlightAware
09:00PM -19.5440 -44.0520 140° Southeast 187 215 4,600 -840 Descending FlightAware
09:00PM -19.5590 -44.0380 139° Southeast 171 197 4,300 -800 Descending FlightAware
09:00PM -19.5700 -44.0280 139° Southeast 163 188 4,000 -840 Descending FlightAware
09:01PM -19.5870 -44.0110 137° Southeast 153 176 3,600 -774 Descending FlightAware
09:01PM -19.6030 -43.9970 141° Southeast 153 176 3,200 -787 Descending FlightAware
09:02PM -19.6190 -43.9830 141° Southeast 153 176 2,800 -735 Descending FlightAware
09:02PM -19.6300 -43.9720 137° Southeast 142 163 2,600 -600 Descending FlightAware

Login

Don't have an account? Register now (free) for customized features, flight alerts, and more!